Flag for U.S.A. Weather past 2 weeks in Winamac, Indiana, U.S.A.

Now
60 °F

Sunny.


Feels Like: 60 °F
Forecast: 33 / 65 °F
Wind: 13 mph from Southeast

Location: Porter County Municipal Airport


UV Index: 5 (Moderate)

Visibility: 10 mi


Pressure: 30.36 "Hg

Humidity: 39%

Dew point: 35 °F

Location of WinamacLocation

Historic Weather in Winamac

°F

Winamac temperature yesterday

Maximum temperature yesterday: 53 °F (at 3:53 PM)
Minimum temperature yesterday: 35 °F (at 10:53 PM)
Average temperature yesterday: 47 °F

Past Weeks' High & Low Weather Summary

 TemperatureHumidityPressure
High76 °F (Apr 12, 5:53 PM)100% (Apr 14, 7:58 AM)30.40 "Hg (Apr 14, 7:58 AM)
Low23 °F (Apr 16, 12:53 AM)16% (Apr 11, 3:53 PM)29.40 "Hg (Apr 14, 4:53 AM)
Average46 °F62%29.99 "Hg
* Reported Apr 4 1:01 PM — Apr 19 12:53 PM, Winamac, Weather by CustomWeather, © 2014

Note: Actual official high and low records may vary slightly from our data, if they occured in-between our weather recording intervals... More about our weather records

Advertising

Historic Weather Conditions — Data for Previous 24 hours

 ConditionsComfort  
Time TempWeatherWind HumidityBarometerVisibility
12:53 PM
Apr 19
60 °FSunny.13 mph39%30.36 "Hg10 mi
11:53 AM56 °FSunny.10 mph49%30.37 "Hg10 mi
10:53 AM52 °FSunny.10 mph57%30.39 "Hg10 mi
9:53 AM47 °FSunny.13 mph69%30.40 "Hg10 mi
8:53 AM41 °FSunny.14 mph80%30.39 "Hg10 mi
7:53 AM35 °FSunny.5 mph82%30.39 "Hg10 mi
6:53 AM32 °FClear.6 mph82%30.37 "Hg10 mi
5:53 AM32 °FClear.6 mph82%30.36 "Hg10 mi
4:53 AM32 °FClear.6 mph79%30.35 "Hg10 mi
3:53 AM32 °FClear.3 mph79%30.36 "Hg10 mi
2:53 AM32 °FClear.5 mph79%30.36 "Hg10 mi
1:53 AM31 °FClear.3 mph76%30.37 "Hg10 mi
12:53 AM34 °FClear.5 mph64%30.36 "Hg10 mi
11:53 PM
Apr 18
35 °FClear.6 mph67%30.37 "Hg10 mi
10:53 PM35 °FClear.7 mph72%30.36 "Hg10 mi
9:53 PM37 °FClear.9 mph70%30.36 "Hg10 mi
8:53 PM38 °FClear.7 mph73%30.34 "Hg10 mi
7:53 PM42 °FSunny.13 mph68%30.33 "Hg10 mi
6:53 PM46 °FSunny.8 mph63%30.33 "Hg10 mi
5:53 PM48 °FSunny.12 mph59%30.33 "Hg10 mi
4:53 PM51 °FSunny.12 mph54%30.32 "Hg10 mi
3:53 PM53 °FSunny.9 mph52%30.33 "Hg10 mi
2:53 PM51 °FSunny.12 mph56%30.34 "Hg10 mi
Weather by CustomWeather, © 2014

See weather overview